Year,Month,Day,Hour,Minute,Value (Times are PST for temperature in C)
2016,11,10,00,00,13.20
2016,11,10,00,01,13.10
2016,11,10,00,02,13.10
2016,11,10,00,03,13.10
2016,11,10,00,04,13.10
2016,11,10,00,05,13.10
2016,11,10,00,06,13.10
2016,11,10,00,07,13.10
2016,11,10,00,08,13.10
2016,11,10,00,09,13.10
2016,11,10,00,10,13.10
2016,11,10,00,11,13.10
2016,11,10,00,12,13.10
2016,11,10,00,13,13.10
2016,11,10,00,14,13.10
2016,11,10,00,15,13.10
2016,11,10,00,16,13.10
2016,11,10,00,17,13.00
2016,11,10,00,18,13.00
2016,11,10,00,19,13.00
2016,11,10,00,20,13.10
2016,11,10,00,21,13.00
2016,11,10,00,22,13.00
2016,11,10,00,23,13.00
2016,11,10,00,24,13.00
2016,11,10,00,25,13.00
2016,11,10,00,26,13.00
2016,11,10,00,27,13.10
2016,11,10,00,28,13.00
2016,11,10,00,29,13.10
2016,11,10,00,30,13.10
2016,11,10,00,31,13.10
2016,11,10,00,32,13.10
2016,11,10,00,33,13.10
2016,11,10,00,34,13.10
2016,11,10,00,35,13.10
2016,11,10,00,36,13.10
2016,11,10,00,37,13.10
2016,11,10,00,38,13.10
2016,11,10,00,39,13.00
2016,11,10,00,40,13.00
2016,11,10,00,41,13.00
2016,11,10,00,42,13.00
2016,11,10,00,43,13.00
2016,11,10,00,44,13.00
2016,11,10,00,45,13.00
2016,11,10,00,46,13.00
2016,11,10,00,47,13.00
2016,11,10,00,48,12.90
2016,11,10,00,49,13.00
2016,11,10,00,50,12.90
2016,11,10,00,51,12.90
2016,11,10,00,52,12.90
2016,11,10,00,53,12.90
2016,11,10,00,54,12.90
2016,11,10,00,55,12.90
2016,11,10,00,56,12.90
2016,11,10,00,57,12.90
2016,11,10,00,58,12.90
2016,11,10,00,59,12.80
2016,11,10,01,00,12.80
2016,11,10,01,01,12.80
2016,11,10,01,02,12.80
2016,11,10,01,03,12.80
2016,11,10,01,04,12.80
2016,11,10,01,05,12.80
2016,11,10,01,06,12.80
2016,11,10,01,07,12.80
2016,11,10,01,08,12.80
2016,11,10,01,09,12.70
2016,11,10,01,10,12.70
2016,11,10,01,11,12.70
2016,11,10,01,12,12.70
2016,11,10,01,13,12.70
2016,11,10,01,14,12.70
2016,11,10,01,15,12.70
2016,11,10,01,16,12.70
2016,11,10,01,17,12.70
2016,11,10,01,18,12.70
2016,11,10,01,19,12.70
2016,11,10,01,20,12.60
2016,11,10,01,21,12.60
2016,11,10,01,22,12.60
2016,11,10,01,23,12.50
2016,11,10,01,24,12.50
2016,11,10,01,25,12.50
2016,11,10,01,26,12.40
2016,11,10,01,27,12.40
2016,11,10,01,28,12.40
2016,11,10,01,29,12.30
2016,11,10,01,30,12.30
2016,11,10,01,31,12.30
2016,11,10,01,32,12.30
2016,11,10,01,33,12.30
2016,11,10,01,34,12.20
2016,11,10,01,35,12.20
2016,11,10,01,36,12.20
2016,11,10,01,37,12.20
2016,11,10,01,38,12.10
2016,11,10,01,39,12.10
2016,11,10,01,40,12.10
2016,11,10,01,41,12.00
2016,11,10,01,42,12.00
2016,11,10,01,43,12.00
2016,11,10,01,44,12.00
2016,11,10,01,45,12.00
2016,11,10,01,46,12.00
2016,11,10,01,47,12.00
2016,11,10,01,48,11.90
2016,11,10,01,49,11.90
2016,11,10,01,50,11.90
2016,11,10,01,51,11.90
2016,11,10,01,52,11.90
2016,11,10,01,53,11.90
2016,11,10,01,54,11.90
2016,11,10,01,55,11.90
2016,11,10,01,56,11.90
2016,11,10,01,57,12.00
2016,11,10,01,58,12.00
2016,11,10,01,59,12.00
2016,11,10,02,00,12.00
2016,11,10,02,01,12.10
2016,11,10,02,02,12.10
2016,11,10,02,03,12.10
2016,11,10,02,04,12.10
2016,11,10,02,05,12.10
2016,11,10,02,06,12.10
2016,11,10,02,07,12.10
2016,11,10,02,08,12.00
2016,11,10,02,09,12.00
2016,11,10,02,10,12.00
2016,11,10,02,11,12.00
2016,11,10,02,12,12.00
2016,11,10,02,13,12.10
2016,11,10,02,14,12.10
2016,11,10,02,15,12.10
2016,11,10,02,16,12.10
2016,11,10,02,17,12.10
2016,11,10,02,18,12.00
2016,11,10,02,19,12.00
2016,11,10,02,20,12.00
2016,11,10,02,21,12.00
2016,11,10,02,22,12.00
2016,11,10,02,23,12.00
2016,11,10,02,24,12.00
2016,11,10,02,25,12.00
2016,11,10,02,26,12.00
2016,11,10,02,27,12.00
2016,11,10,02,28,12.00
2016,11,10,02,29,12.00
2016,11,10,02,30,12.00
2016,11,10,02,31,12.00
2016,11,10,02,32,11.90
2016,11,10,02,33,11.90
2016,11,10,02,34,11.90
2016,11,10,02,35,11.90
2016,11,10,02,36,11.80
2016,11,10,02,37,11.80
2016,11,10,02,38,11.80
2016,11,10,02,39,11.80
2016,11,10,02,40,11.80
2016,11,10,02,41,11.80
2016,11,10,02,42,11.80
2016,11,10,02,43,11.80
2016,11,10,02,44,11.70
2016,11,10,02,45,11.70
2016,11,10,02,46,11.70
2016,11,10,02,47,11.70
2016,11,10,02,48,11.70
2016,11,10,02,49,11.70
2016,11,10,02,50,11.70
2016,11,10,02,51,11.70
2016,11,10,02,52,11.70
2016,11,10,02,53,11.70
2016,11,10,02,54,11.70
2016,11,10,02,55,11.70
2016,11,10,02,56,11.70
2016,11,10,02,57,11.70
2016,11,10,02,58,11.70
2016,11,10,02,59,11.70
2016,11,10,03,00,11.70
2016,11,10,03,01,11.70
2016,11,10,03,02,11.70
2016,11,10,03,03,11.70
2016,11,10,03,04,11.70
2016,11,10,03,05,11.70
2016,11,10,03,06,11.70
2016,11,10,03,07,11.60
2016,11,10,03,08,11.60
2016,11,10,03,09,11.60
2016,11,10,03,10,11.60
2016,11,10,03,11,11.60
2016,11,10,03,12,11.60
2016,11,10,03,13,11.50
2016,11,10,03,14,11.50
2016,11,10,03,15,11.50
2016,11,10,03,16,11.50
2016,11,10,03,17,11.50
2016,11,10,03,18,11.50
2016,11,10,03,19,11.40
2016,11,10,03,20,11.40
2016,11,10,03,21,11.40
2016,11,10,03,22,11.40
2016,11,10,03,23,11.40
2016,11,10,03,24,11.40
2016,11,10,03,25,11.40
2016,11,10,03,26,11.30
2016,11,10,03,27,11.30
2016,11,10,03,28,11.30
2016,11,10,03,29,11.30
2016,11,10,03,30,11.30
2016,11,10,03,31,11.30
2016,11,10,03,32,11.20
2016,11,10,03,33,11.20
2016,11,10,03,34,11.20
2016,11,10,03,35,11.20
2016,11,10,03,36,11.10
2016,11,10,03,37,11.10
2016,11,10,03,38,11.10
2016,11,10,03,39,11.10
2016,11,10,03,40,11.10
2016,11,10,03,41,11.00
2016,11,10,03,42,11.00
2016,11,10,03,43,11.00
2016,11,10,03,44,11.00
2016,11,10,03,45,11.00
2016,11,10,03,46,10.90
2016,11,10,03,47,10.90
2016,11,10,03,48,10.90
2016,11,10,03,49,10.90
2016,11,10,03,50,10.90
2016,11,10,03,51,10.90
2016,11,10,03,52,10.90
2016,11,10,03,53,10.90
2016,11,10,03,54,10.90
2016,11,10,03,55,10.80
2016,11,10,03,56,10.90
2016,11,10,03,57,10.90
2016,11,10,03,58,10.90
2016,11,10,03,59,10.90
2016,11,10,04,00,10.90
2016,11,10,04,01,10.90
2016,11,10,04,02,10.90
2016,11,10,04,03,10.90
2016,11,10,04,04,10.90
2016,11,10,04,05,10.90
2016,11,10,04,06,10.90
2016,11,10,04,07,10.90
2016,11,10,04,08,10.90
2016,11,10,04,09,10.90
2016,11,10,04,10,10.90
2016,11,10,04,11,10.90
2016,11,10,04,12,10.90
2016,11,10,04,13,10.90
2016,11,10,04,14,10.90
2016,11,10,04,15,10.90
2016,11,10,04,16,10.90
2016,11,10,04,17,10.90
2016,11,10,04,18,10.90
2016,11,10,04,19,10.90
2016,11,10,04,20,10.90
2016,11,10,04,21,10.90
2016,11,10,04,22,11.00
2016,11,10,04,23,11.00
2016,11,10,04,24,11.00
2016,11,10,04,25,11.00
2016,11,10,04,26,11.00
2016,11,10,04,27,11.00
2016,11,10,04,28,10.90
2016,11,10,04,29,10.90
2016,11,10,04,30,10.90
2016,11,10,04,31,10.90
2016,11,10,04,32,10.90
2016,11,10,04,33,10.90
2016,11,10,04,34,10.80
2016,11,10,04,35,10.80
2016,11,10,04,36,10.80
2016,11,10,04,37,10.80
2016,11,10,04,38,10.80
2016,11,10,04,39,10.80
2016,11,10,04,40,10.80
2016,11,10,04,41,10.80
2016,11,10,04,42,10.80
2016,11,10,04,43,10.80
2016,11,10,04,44,10.80
2016,11,10,04,45,10.80
2016,11,10,04,46,10.80
2016,11,10,04,47,10.80
2016,11,10,04,48,10.80
2016,11,10,04,49,10.80
2016,11,10,04,50,10.70
2016,11,10,04,51,10.70
2016,11,10,04,52,10.70
2016,11,10,04,53,10.70
2016,11,10,04,54,10.70
2016,11,10,04,55,10.70
2016,11,10,04,56,10.70
2016,11,10,04,57,10.70
2016,11,10,04,58,10.70
2016,11,10,04,59,10.70
2016,11,10,05,00,10.70
2016,11,10,05,01,10.70
2016,11,10,05,02,10.70
2016,11,10,05,03,10.70
2016,11,10,05,04,10.70
2016,11,10,05,05,10.70
2016,11,10,05,06,10.70
2016,11,10,05,07,10.70
2016,11,10,05,08,10.70
2016,11,10,05,09,10.60
2016,11,10,05,10,10.60
2016,11,10,05,11,10.60
2016,11,10,05,12,10.60
2016,11,10,05,13,10.50
2016,11,10,05,14,10.50
2016,11,10,05,15,10.40
2016,11,10,05,16,10.40
2016,11,10,05,17,10.40
2016,11,10,05,18,10.30
2016,11,10,05,19,10.30
2016,11,10,05,20,10.30
2016,11,10,05,21,10.30
2016,11,10,05,22,10.20
2016,11,10,05,23,10.20
2016,11,10,05,24,10.20
2016,11,10,05,25,10.10
2016,11,10,05,26,10.10
2016,11,10,05,27,10.10
2016,11,10,05,28,10.10
2016,11,10,05,29,10.00
2016,11,10,05,30,10.00
2016,11,10,05,31,9.90
2016,11,10,05,32,9.90
2016,11,10,05,33,9.80
2016,11,10,05,34,9.80
2016,11,10,05,35,9.80
2016,11,10,05,36,9.70
2016,11,10,05,37,9.70
2016,11,10,05,38,9.70
2016,11,10,05,39,9.60
2016,11,10,05,40,9.60
2016,11,10,05,41,9.60
2016,11,10,05,42,9.60
2016,11,10,05,43,9.60
2016,11,10,05,44,9.60
2016,11,10,05,45,9.60
2016,11,10,05,46,9.60
2016,11,10,05,47,9.60
2016,11,10,05,48,9.60
2016,11,10,05,49,9.60
2016,11,10,05,50,9.60
2016,11,10,05,51,9.60
2016,11,10,05,52,9.60
2016,11,10,05,53,9.60
2016,11,10,05,54,9.60
2016,11,10,05,55,9.60
2016,11,10,05,56,9.60
2016,11,10,05,57,9.60
2016,11,10,05,58,9.60
2016,11,10,05,59,9.60
2016,11,10,06,00,9.60
2016,11,10,06,01,9.60
2016,11,10,06,02,9.60
2016,11,10,06,03,9.60
2016,11,10,06,04,9.50
2016,11,10,06,05,9.50
2016,11,10,06,06,9.50
2016,11,10,06,07,9.50
2016,11,10,06,08,9.50
2016,11,10,06,09,9.40
2016,11,10,06,10,9.40
2016,11,10,06,11,9.50
2016,11,10,06,12,9.50
2016,11,10,06,13,9.60
2016,11,10,06,14,9.60
2016,11,10,06,15,9.60
2016,11,10,06,16,9.70
2016,11,10,06,17,9.70
2016,11,10,06,18,9.70
2016,11,10,06,19,9.80
2016,11,10,06,20,9.80
2016,11,10,06,21,9.80
2016,11,10,06,22,9.90
2016,11,10,06,23,9.90
2016,11,10,06,24,9.90
2016,11,10,06,25,9.90
2016,11,10,06,26,9.90
2016,11,10,06,27,9.90
2016,11,10,06,28,9.90
2016,11,10,06,29,9.90
2016,11,10,06,30,9.90
2016,11,10,06,31,9.90
2016,11,10,06,32,9.90
2016,11,10,06,33,9.90
2016,11,10,06,34,9.90
2016,11,10,06,35,9.80
2016,11,10,06,36,9.90
2016,11,10,06,37,9.80
2016,11,10,06,38,9.80
2016,11,10,06,39,9.80
2016,11,10,06,40,9.80
2016,11,10,06,41,9.80
2016,11,10,06,42,9.80
2016,11,10,06,43,9.80
2016,11,10,06,44,9.80
2016,11,10,06,45,9.80
2016,11,10,06,46,9.80
2016,11,10,06,47,9.80
2016,11,10,06,48,9.70
2016,11,10,06,49,9.70
2016,11,10,06,50,9.70
2016,11,10,06,51,9.70
2016,11,10,06,52,9.70
2016,11,10,06,53,9.70
2016,11,10,06,54,9.60
2016,11,10,06,55,9.60
2016,11,10,06,56,9.60
2016,11,10,06,57,9.60
2016,11,10,06,58,9.60
2016,11,10,06,59,9.60
2016,11,10,07,00,9.60
2016,11,10,07,01,9.50
2016,11,10,07,02,9.60
2016,11,10,07,03,9.60
2016,11,10,07,04,9.60
2016,11,10,07,05,9.60
2016,11,10,07,06,9.60
2016,11,10,07,07,9.60
2016,11,10,07,08,9.70
2016,11,10,07,09,9.70
2016,11,10,07,10,9.80
2016,11,10,07,11,9.80
2016,11,10,07,12,9.80
2016,11,10,07,13,9.90
2016,11,10,07,14,9.90
2016,11,10,07,15,9.90
2016,11,10,07,16,9.90
2016,11,10,07,17,9.90
2016,11,10,07,18,9.90
2016,11,10,07,19,10.00
2016,11,10,07,20,10.00
2016,11,10,07,21,10.00
2016,11,10,07,22,10.10
2016,11,10,07,23,10.10
2016,11,10,07,24,10.10
2016,11,10,07,25,10.10
2016,11,10,07,26,10.20
2016,11,10,07,27,10.20
2016,11,10,07,28,10.20
2016,11,10,11,44,14.60
2016,11,10,11,45,14.60
2016,11,10,11,46,14.70
2016,11,10,11,47,14.70
2016,11,10,11,48,14.90
2016,11,10,11,49,15.00
2016,11,10,11,50,15.00
2016,11,10,11,51,15.00
2016,11,10,11,52,15.00
2016,11,10,11,53,15.00
2016,11,10,11,54,15.00
2016,11,10,11,55,15.00
2016,11,10,11,56,15.00
2016,11,10,11,57,15.10
2016,11,10,11,58,15.10
2016,11,10,11,59,15.20
2016,11,10,12,00,15.20
2016,11,10,12,01,15.20
2016,11,10,12,02,15.30
2016,11,10,12,03,15.40
2016,11,10,12,04,15.50
2016,11,10,12,05,15.60
2016,11,10,12,06,15.70
2016,11,10,12,07,15.70
2016,11,10,12,08,15.80
2016,11,10,12,09,15.80
2016,11,10,12,10,15.90
2016,11,10,12,11,16.00
2016,11,10,12,12,16.00
2016,11,10,12,13,16.10
2016,11,10,12,14,16.20
2016,11,10,12,15,16.20
2016,11,10,12,16,16.30
2016,11,10,12,17,16.30
2016,11,10,12,18,16.30
2016,11,10,12,19,16.30
2016,11,10,12,20,16.30
2016,11,10,12,21,16.30
2016,11,10,12,22,16.30
2016,11,10,12,23,16.30
2016,11,10,12,24,16.30
2016,11,10,12,25,16.20
2016,11,10,12,26,16.20
2016,11,10,12,27,16.20
2016,11,10,12,28,16.20
2016,11,10,12,29,16.20
2016,11,10,12,30,16.20
2016,11,10,12,31,16.30
2016,11,10,12,32,16.30
2016,11,10,12,33,16.30
2016,11,10,12,34,16.30
2016,11,10,12,35,16.20
2016,11,10,12,36,16.20
2016,11,10,12,37,16.20
2016,11,10,12,38,16.20
2016,11,10,12,39,16.20
2016,11,10,12,40,16.10
2016,11,10,12,41,16.10
2016,11,10,12,42,16.10
2016,11,10,12,43,16.10
2016,11,10,12,44,16.10
2016,11,10,12,45,16.20
2016,11,10,12,46,16.20
2016,11,10,12,47,16.10
2016,11,10,12,48,16.10
2016,11,10,12,49,16.10
2016,11,10,12,50,16.20
2016,11,10,12,51,16.20
2016,11,10,12,52,16.20
2016,11,10,12,53,16.20
2016,11,10,12,54,16.20
2016,11,10,12,55,16.20
2016,11,10,12,56,16.20
2016,11,10,12,57,16.20
2016,11,10,12,58,16.20
2016,11,10,12,59,16.30
2016,11,10,13,00,16.30
2016,11,10,13,01,16.40
2016,11,10,13,02,16.40
2016,11,10,13,03,16.40
2016,11,10,13,04,16.50
2016,11,10,13,05,16.50
2016,11,10,13,06,16.60
2016,11,10,13,07,16.70
2016,11,10,13,08,16.70
2016,11,10,13,09,16.60
2016,11,10,13,10,16.60
2016,11,10,13,11,16.60
2016,11,10,13,12,16.50
2016,11,10,13,13,16.40
2016,11,10,13,14,16.40
2016,11,10,13,15,16.40
2016,11,10,13,16,16.40
2016,11,10,13,17,16.40
2016,11,10,13,18,16.30
2016,11,10,13,19,16.30
2016,11,10,13,20,16.30
2016,11,10,13,21,16.30
2016,11,10,13,22,16.40
2016,11,10,13,23,16.40
2016,11,10,13,24,16.50
2016,11,10,13,25,16.60
2016,11,10,13,26,16.60
2016,11,10,13,27,16.70
2016,11,10,13,28,16.80
2016,11,10,13,29,16.80
2016,11,10,13,30,16.80
2016,11,10,13,31,16.80
2016,11,10,13,32,16.90
2016,11,10,13,33,16.90
2016,11,10,13,34,16.90
2016,11,10,13,35,16.90
2016,11,10,13,36,16.80
2016,11,10,13,37,16.80
2016,11,10,13,38,16.80
2016,11,10,13,39,16.80
2016,11,10,13,40,16.80
2016,11,10,13,41,16.70
2016,11,10,13,42,16.70
2016,11,10,13,43,16.70
2016,11,10,13,44,16.70
2016,11,10,13,45,16.70
2016,11,10,13,46,16.70
2016,11,10,13,47,16.70
2016,11,10,13,48,16.70
2016,11,10,13,49,16.70
2016,11,10,13,50,16.70
2016,11,10,13,51,16.70
2016,11,10,13,52,16.70
2016,11,10,13,53,16.70
2016,11,10,13,54,16.80
2016,11,10,13,55,16.80
2016,11,10,13,56,16.80
2016,11,10,13,57,16.70
2016,11,10,13,58,16.70
2016,11,10,13,59,16.70
2016,11,10,14,00,16.70
2016,11,10,14,01,16.80
2016,11,10,14,02,16.80
2016,11,10,14,03,16.80
2016,11,10,14,04,16.80
2016,11,10,14,05,16.80
2016,11,10,14,06,16.80
2016,11,10,14,07,16.80
2016,11,10,14,08,16.90
2016,11,10,14,09,16.90
2016,11,10,14,10,16.90
2016,11,10,14,11,16.90
2016,11,10,14,12,16.90
2016,11,10,14,13,16.90
2016,11,10,14,14,16.90
2016,11,10,14,15,17.00
2016,11,10,14,16,17.00
2016,11,10,14,17,17.00
2016,11,10,14,18,17.00
2016,11,10,14,19,17.00
2016,11,10,14,20,17.10
2016,11,10,14,21,17.10
2016,11,10,14,22,17.00
2016,11,10,14,23,17.00
2016,11,10,14,24,17.00
2016,11,10,14,25,16.90
2016,11,10,14,26,16.90
2016,11,10,14,27,16.80
2016,11,10,14,28,16.80
2016,11,10,14,29,16.70
2016,11,10,14,30,16.60
2016,11,10,14,31,16.60
2016,11,10,14,32,16.60
2016,11,10,14,33,16.50
2016,11,10,14,34,16.50
2016,11,10,14,35,16.50
2016,11,10,14,36,16.40
2016,11,10,14,37,16.40
2016,11,10,14,38,16.40
2016,11,10,14,39,16.30
2016,11,10,14,40,16.30
2016,11,10,14,41,16.20
2016,11,10,14,42,16.20
2016,11,10,14,43,16.20
2016,11,10,14,44,16.20
2016,11,10,14,45,16.10
2016,11,10,14,46,16.10
2016,11,10,14,47,16.10
2016,11,10,14,48,16.10
2016,11,10,14,49,16.10
2016,11,10,14,50,16.10
2016,11,10,14,51,16.10
2016,11,10,14,52,16.20
2016,11,10,14,53,16.20
2016,11,10,14,54,16.20
2016,11,10,14,55,16.20
2016,11,10,14,56,16.20
2016,11,10,14,57,16.20
2016,11,10,14,58,16.30
2016,11,10,14,59,16.30
2016,11,10,15,00,16.30
2016,11,10,15,01,16.30
2016,11,10,15,02,16.30
2016,11,10,15,03,16.30
2016,11,10,15,04,16.30
2016,11,10,15,05,16.30
2016,11,10,15,06,16.30
2016,11,10,15,07,16.30
2016,11,10,15,08,16.30
2016,11,10,15,09,16.30
2016,11,10,15,10,16.30
2016,11,10,15,11,16.20
2016,11,10,15,12,16.20
2016,11,10,15,13,16.10
2016,11,10,15,14,16.10
2016,11,10,15,15,16.10
2016,11,10,15,16,16.00
2016,11,10,15,17,16.00
2016,11,10,15,18,15.90
2016,11,10,15,19,15.90
2016,11,10,15,20,15.90
2016,11,10,15,21,15.90
2016,11,10,15,22,15.90
2016,11,10,15,23,15.90
2016,11,10,15,24,15.80
2016,11,10,15,25,15.80
2016,11,10,15,26,15.80
2016,11,10,15,27,15.80
2016,11,10,15,28,15.80
2016,11,10,15,29,15.80
2016,11,10,15,30,15.80
2016,11,10,15,31,15.80
2016,11,10,15,32,15.80
2016,11,10,15,33,15.80
2016,11,10,15,34,15.80
2016,11,10,15,35,15.80
2016,11,10,15,36,15.80
2016,11,10,15,37,15.70
2016,11,10,15,38,15.70
2016,11,10,15,39,15.50
2016,11,10,15,40,15.50
2016,11,10,15,41,15.40
2016,11,10,15,42,15.40
2016,11,10,15,43,15.40
2016,11,10,15,44,15.30
2016,11,10,15,45,15.30
2016,11,10,15,46,15.30
2016,11,10,15,47,15.20
2016,11,10,15,48,15.20
2016,11,10,15,49,15.20
2016,11,10,15,50,15.10
2016,11,10,15,51,15.10
2016,11,10,15,52,15.00
2016,11,10,15,53,15.00
2016,11,10,15,54,15.00
2016,11,10,15,55,15.00
2016,11,10,15,56,15.00
2016,11,10,15,57,15.00
2016,11,10,15,58,15.00
2016,11,10,15,59,14.90
2016,11,10,16,00,14.90
2016,11,10,16,01,14.80
2016,11,10,16,02,14.80
2016,11,10,16,03,14.80
2016,11,10,16,04,14.70
2016,11,10,16,05,14.70
2016,11,10,16,06,14.70
2016,11,10,16,07,14.70
2016,11,10,16,08,14.70
2016,11,10,16,09,14.70
2016,11,10,16,10,14.60
2016,11,10,16,11,14.60
2016,11,10,16,12,14.50
2016,11,10,16,13,14.40
2016,11,10,16,14,14.40
2016,11,10,16,15,14.40
2016,11,10,16,16,14.30
2016,11,10,16,17,14.30
2016,11,10,16,18,14.30
2016,11,10,16,19,14.30
2016,11,10,16,20,14.30
2016,11,10,16,21,14.30
2016,11,10,16,22,14.30
2016,11,10,16,23,14.20
2016,11,10,16,24,14.20
2016,11,10,16,25,14.20
2016,11,10,16,26,14.10
2016,11,10,16,27,14.10
2016,11,10,16,28,14.00
2016,11,10,16,29,14.00
2016,11,10,16,30,13.90
2016,11,10,16,31,13.90
2016,11,10,16,32,13.90
2016,11,10,16,33,13.80
2016,11,10,16,34,13.80
2016,11,10,16,35,13.80
2016,11,10,16,36,13.80
2016,11,10,16,37,13.80
2016,11,10,16,38,13.70
2016,11,10,16,39,13.70
2016,11,10,16,40,13.70
2016,11,10,16,41,13.70
2016,11,10,16,42,13.70
2016,11,10,16,43,13.70
2016,11,10,16,44,13.70
2016,11,10,16,45,13.70
2016,11,10,16,46,13.70
2016,11,10,16,47,13.70
2016,11,10,16,48,13.60
2016,11,10,16,49,13.60
2016,11,10,16,50,13.60
2016,11,10,16,51,13.60
2016,11,10,16,52,13.50
2016,11,10,16,53,13.50
2016,11,10,16,54,13.50
2016,11,10,16,55,13.40
2016,11,10,16,56,13.40
2016,11,10,16,57,13.40
2016,11,10,16,58,13.40
2016,11,10,16,59,13.40
2016,11,10,17,00,13.30
2016,11,10,17,01,13.30
2016,11,10,17,02,13.30
2016,11,10,17,03,13.30
2016,11,10,17,04,13.30
2016,11,10,17,05,13.20
2016,11,10,17,06,13.20
2016,11,10,17,07,13.20
2016,11,10,17,08,13.20
2016,11,10,17,09,13.20
2016,11,10,17,10,13.20
2016,11,10,17,11,13.10
2016,11,10,17,12,13.10
2016,11,10,17,13,13.10
2016,11,10,17,14,13.10
2016,11,10,17,15,13.10
2016,11,10,17,16,13.10
2016,11,10,17,17,13.10
2016,11,10,17,18,13.10
2016,11,10,17,19,13.00
2016,11,10,17,20,13.00
2016,11,10,17,21,13.00
2016,11,10,17,22,13.00
2016,11,10,17,23,13.00
2016,11,10,17,24,13.00
2016,11,10,17,25,12.90
2016,11,10,17,26,12.90
2016,11,10,17,27,12.90
2016,11,10,17,28,12.90
2016,11,10,17,29,12.90
2016,11,10,17,30,12.90
2016,11,10,17,31,12.90
2016,11,10,17,32,12.90
2016,11,10,17,33,12.90
2016,11,10,17,34,12.90
2016,11,10,17,35,12.80
2016,11,10,17,36,12.80
2016,11,10,17,37,12.80
2016,11,10,17,38,12.80
2016,11,10,17,39,12.80
2016,11,10,17,40,12.80
2016,11,10,17,41,12.80
2016,11,10,17,42,12.80
2016,11,10,17,43,12.80
2016,11,10,17,44,12.80
2016,11,10,17,45,12.80
2016,11,10,17,46,12.70
2016,11,10,17,47,12.70
2016,11,10,17,48,12.70
2016,11,10,17,49,12.70
2016,11,10,17,50,12.70
2016,11,10,17,51,12.70
2016,11,10,17,52,12.70
2016,11,10,17,53,12.70
2016,11,10,17,54,12.70
2016,11,10,17,55,12.70
2016,11,10,17,56,12.70
2016,11,10,17,57,12.60
2016,11,10,17,58,12.60
2016,11,10,17,59,12.60
2016,11,10,18,00,12.60
2016,11,10,18,01,12.60
2016,11,10,18,02,12.60
2016,11,10,18,03,12.60
2016,11,10,18,04,12.60
2016,11,10,18,05,12.60
2016,11,10,18,06,12.60
2016,11,10,18,07,12.60
2016,11,10,18,08,12.50
2016,11,10,18,09,12.50
2016,11,10,18,10,12.50
2016,11,10,18,11,12.50
2016,11,10,18,12,12.50
2016,11,10,18,13,12.50
2016,11,10,18,14,12.50
2016,11,10,18,15,12.50
2016,11,10,18,16,12.50
2016,11,10,18,17,12.50
2016,11,10,18,18,12.50
2016,11,10,18,19,12.40
2016,11,10,18,20,12.40
2016,11,10,18,21,12.40
2016,11,10,18,22,12.40
2016,11,10,18,23,12.40
2016,11,10,18,24,12.40
2016,11,10,18,25,12.40
2016,11,10,18,26,12.40
2016,11,10,18,27,12.40
2016,11,10,18,28,12.40
2016,11,10,18,29,12.40
2016,11,10,18,30,12.40
2016,11,10,18,31,12.40
2016,11,10,18,32,12.40
2016,11,10,18,33,12.40
2016,11,10,18,34,12.40
2016,11,10,18,35,12.40
2016,11,10,18,36,12.30
2016,11,10,18,37,12.30
2016,11,10,18,38,12.30
2016,11,10,18,39,12.30
2016,11,10,18,40,12.30
2016,11,10,18,41,12.30
2016,11,10,18,42,12.30
2016,11,10,18,43,12.30
2016,11,10,18,44,12.30
2016,11,10,18,45,12.30
2016,11,10,18,46,12.30
2016,11,10,18,47,12.30
2016,11,10,18,48,12.30
2016,11,10,18,49,12.30
2016,11,10,18,50,12.30
2016,11,10,18,51,12.30
2016,11,10,18,52,12.30
2016,11,10,18,53,12.30
2016,11,10,18,54,12.30
2016,11,10,18,55,12.30
2016,11,10,18,56,12.30
2016,11,10,18,57,12.20
2016,11,10,18,58,12.20
2016,11,10,18,59,12.20
2016,11,10,19,00,12.30
2016,11,10,19,01,12.20
2016,11,10,19,02,12.20
2016,11,10,19,03,12.20
2016,11,10,19,04,12.20
2016,11,10,19,05,12.20
2016,11,10,19,06,12.20
2016,11,10,19,07,12.20
2016,11,10,19,08,12.20
2016,11,10,19,09,12.20
2016,11,10,19,10,12.20
2016,11,10,19,11,12.20
2016,11,10,19,12,12.20
2016,11,10,19,13,12.20
2016,11,10,19,14,12.20
2016,11,10,19,15,12.20
2016,11,10,19,16,12.20
2016,11,10,19,17,12.20
2016,11,10,19,18,12.20
2016,11,10,19,19,12.20
2016,11,10,19,20,12.20
2016,11,10,19,21,12.20
2016,11,10,19,22,12.20
2016,11,10,19,23,12.20
2016,11,10,19,24,12.20
2016,11,10,19,25,12.20
2016,11,10,19,26,12.20
2016,11,10,19,27,12.20
2016,11,10,19,28,12.20
2016,11,10,19,29,12.20
2016,11,10,19,30,12.20
2016,11,10,19,31,12.20
2016,11,10,19,32,12.20
2016,11,10,19,33,12.20
2016,11,10,19,34,12.20
2016,11,10,19,35,12.20
2016,11,10,19,36,12.20
2016,11,10,19,37,12.10
2016,11,10,19,38,12.10
2016,11,10,19,39,12.10
2016,11,10,19,40,12.20
2016,11,10,19,41,12.10
2016,11,10,19,42,12.10
2016,11,10,19,43,12.10
2016,11,10,19,44,12.10
2016,11,10,19,45,12.10
2016,11,10,19,46,12.10
2016,11,10,19,47,12.10
2016,11,10,19,48,12.10
2016,11,10,19,49,12.10
2016,11,10,19,50,12.10
2016,11,10,19,51,12.10
2016,11,10,19,52,12.10
2016,11,10,19,53,12.10
2016,11,10,19,54,12.10
2016,11,10,19,55,12.10
2016,11,10,19,56,12.10
2016,11,10,19,57,12.10
2016,11,10,19,58,12.10
2016,11,10,19,59,12.10
2016,11,10,20,00,12.10
2016,11,10,20,01,12.10
2016,11,10,20,02,12.10
2016,11,10,20,03,12.10
2016,11,10,20,04,12.10
2016,11,10,20,05,12.10
2016,11,10,20,06,12.10
2016,11,10,20,07,12.10
2016,11,10,20,08,12.10
2016,11,10,20,09,12.10
2016,11,10,20,10,12.10
2016,11,10,20,11,12.10
2016,11,10,20,12,12.10
2016,11,10,20,13,12.10
2016,11,10,20,14,12.10
2016,11,10,20,15,12.10
2016,11,10,20,16,12.10
2016,11,10,20,17,12.00
2016,11,10,20,18,12.00
2016,11,10,20,19,12.00
2016,11,10,20,20,12.00
2016,11,10,20,21,12.00
2016,11,10,20,22,12.00
2016,11,10,20,23,12.00
2016,11,10,20,24,12.00
2016,11,10,20,25,12.00
2016,11,10,20,26,12.00
2016,11,10,20,27,12.00
2016,11,10,20,28,12.00
2016,11,10,20,29,11.90
2016,11,10,20,30,11.90
2016,11,10,20,31,11.90
2016,11,10,20,32,11.90
2016,11,10,20,33,11.90
2016,11,10,20,34,11.90
2016,11,10,20,35,11.90
2016,11,10,20,36,11.90
2016,11,10,20,37,11.90
2016,11,10,20,38,11.90
2016,11,10,20,39,11.90
2016,11,10,20,40,11.90
2016,11,10,20,41,11.90
2016,11,10,20,42,11.90
2016,11,10,20,43,11.90
2016,11,10,20,44,11.90
2016,11,10,20,45,11.80
2016,11,10,20,46,11.80
2016,11,10,20,47,11.80
2016,11,10,20,48,11.80
2016,11,10,20,49,11.80
2016,11,10,20,50,11.80
2016,11,10,20,51,11.80
2016,11,10,20,52,11.80
2016,11,10,20,53,11.80
2016,11,10,20,54,11.80
2016,11,10,20,55,11.80
2016,11,10,20,56,11.80
2016,11,10,20,57,11.80
2016,11,10,20,58,11.80
2016,11,10,20,59,11.80
2016,11,10,21,00,11.80
2016,11,10,21,01,11.80
2016,11,10,21,02,11.80
2016,11,10,21,03,11.80
2016,11,10,21,04,11.80
2016,11,10,21,05,11.80
2016,11,10,21,06,11.80
2016,11,10,21,07,11.80
2016,11,10,21,08,11.80
2016,11,10,21,09,11.80
2016,11,10,21,10,11.80
2016,11,10,21,11,11.80
2016,11,10,21,12,11.80
2016,11,10,21,13,11.80
2016,11,10,21,14,11.80
2016,11,10,21,15,11.80
2016,11,10,21,16,11.80
2016,11,10,21,17,11.80
2016,11,10,21,18,11.80
2016,11,10,21,19,11.80
2016,11,10,21,20,11.80
2016,11,10,21,21,11.80
2016,11,10,21,22,11.80
2016,11,10,21,23,11.80
2016,11,10,21,24,11.80
2016,11,10,21,25,11.80
2016,11,10,21,26,11.80
2016,11,10,21,27,11.80
2016,11,10,21,28,11.80
2016,11,10,21,29,11.80
2016,11,10,21,30,11.80
2016,11,10,21,31,11.80
2016,11,10,21,32,11.80
2016,11,10,21,33,11.80
2016,11,10,21,34,11.80
2016,11,10,21,35,11.80
2016,11,10,21,36,11.80
2016,11,10,21,37,11.80
2016,11,10,21,38,11.80
2016,11,10,21,39,11.80